Location: Clarion
(42.7316°N, 93.7330°W)
Time: 01:26:12
(UTC+00:00)

COSMOS 2406 - Pass Details

Date: 22 April 2026
Orbit: 845 x 859 km, 71.0° (Epoch: 20 May)

Event Time Altitude Azimuth Distance (km) Brightness Sun altitude
Exits shadow 07:20:34 41° 68° (ENE) 1,220 4.2 -32.9°
Drops below altitude 10° 07:24:45 10° 35° (NE) 2,502 6.5 -32.7°
Sets 07:27:16 0° 30° (NNE) 3,443 7.5 -32.5°
